[[{"header":{"parameterUnit":"m.s-1","parameterCategory":1,"la1":30.2991,"la2":30.254,"lo1":-89.0895,"lo2":-89.0444,"dy":0.0017,"dx":0.0017,"nx":28,"ny":28,"refTime":"2024-03-02T03:00:00:Z","depth":0,"parameterNumber":2,"parameterNumberName":"U-component_of_WINDS"},"data":[0,0,0,0,0,0,0,0,0,0,0,0,0,0,0,0,0,0,0,0,0,0,0,0,0,0,0,0,0,0,0,0,0,0,0,0,0,0,0,0,0,0,0,0,0,0,0,0,0,0,0,0,0,0,0,0,0,0,-1.5518,-1.5517,0,-1.5438,-1.5437,-1.5437,-1.5346,-1.5345,-1.5344,-1.5342,-1.5259,-1.5258,-1.5258,0,0,0,0,0,0,0,0,0,0,0,0,0,-1.5593,-1.5592,-1.5518,-1.5517,-1.5516,-1.5439,-1.5437,-1.5436,-1.5346,-1.5345,-1.5343,-1.5342,-1.526,-1.5259,-1.5257,0,0,0,0,0,0,0,0,0,0,0,0,0,-1.5542,-1.5592,-1.5519,-1.5462,-1.5456,-1.5439,-1.5437,-1.5436,-1.5347,-1.5345,-1.5343,-1.5341,-1.526,-1.5259,-1.5257,-1.5288,0,0,-1.5253,-1.5252,0,0,0,0,0,0,0,0,-1.5545,-1.5539,-1.5471,-1.5466,-1.5459,-1.54,-1.5433,-1.5386,-1.5347,-1.5388,-1.5342,-1.534,-1.5308,-1.5302,-1.5292,-1.5284,-1.5281,-1.5253,-1.5252,-1.5251,-1.5251,0,0,0,0,0,0,0,-1.5548,-1.5542,-1.5487,-1.5471,-1.5463,-1.5441,-1.5431,-1.5424,-1.536,-1.5385,-1.5378,-1.537,-1.5304,-1.5293,-1.5289,-1.528,-1.5253,-1.5251,-1.5251,-1.525,-1.5295,-1.5297,0,0,0,0,0,0,-1.5561,-1.5546,-1.5489,-1.5484,-1.5498,-1.5441,-1.543,-1.5421,-1.536,-1.5349,-1.5372,-1.5366,-1.5297,-1.5291,-1.5286,-1.5319,-1.5251,-1.525,-1.5249,-1.5293,-1.5296,-1.5298,0,0,0,0,0,0,-1.5562,-1.5556,-1.5492,-1.5513,-1.5503,-1.5442,-1.5432,-1.5421,-1.541,-1.535,-1.5338,-1.5372,-1.5295,-1.5288,-1.5289,-1.5315,-1.5249,-1.5248,-1.5291,-1.5294,-1.5297,-1.5385,0,0,0,0,0,0,-1.5565,-1.5558,-1.5569,-1.5514,-1.5502,-1.5497,-1.5434,-1.5421,-1.5408,-1.5399,-1.5348,-1.5337,-1.5293,-1.5291,-1.5287,-1.5312,-1.5247,-1.5288,-1.5292,-1.5296,-1.538,-1.5391,-1.5401,0,0,0,0,0,-1.5568,-1.5596,-1.557,-1.5563,-1.5515,-1.5499,-1.5492,-1.5441,-1.541,-1.5421,-1.5383,-1.5339,-1.5313,-1.5292,-1.5287,-1.5311,-1.5286,-1.5291,-1.5295,-1.5375,-1.5389,-1.54,0,0,0,0,0,0,-1.5655,-1.5588,-1.5558,-1.5569,-1.5541,-1.5483,-1.5495,-1.5457,-1.5436,-1.5429,-1.5366,-1.5355,-1.5364,-1.5337,-1.5316,-1.5339,-1.5293,-1.5297,-1.5355,-1.5368,-1.5378,-1.5385,-1.5246,0,0,0,0,0,-1.5676,-1.5668,-1.561,-1.5626,-1.5613,-1.5557,-1.5548,-1.5511,-1.5478,-1.5466,-1.5427,-1.5397,-1.5382,-1.5374,-1.5356,-1.5376,-1.5363,-1.539,-1.54,-1.5409,-1.5413,-1.5422,-1.5434,-1.5313,-1.5313,-1.5313,0,0,-1.5718,-1.568,-1.5679,-1.5642,-1.5615,-1.5609,-1.5547,-1.5543,-1.5537,-1.5464,-1.5463,-1.5435,-1.5397,-1.5408,-1.541,-1.5386,-1.5444,-1.5415,-1.5423,-1.5422,-1.5428,-1.544,-1.545,-1.5316,-1.5316,-1.5315,0,0,-1.5792,-1.5762,-1.5773,-1.5748,-1.5709,-1.5671,-1.5674,-1.5623,-1.5602,-1.56,-1.5545,-1.5538,-1.5513,-1.5489,-1.5473,-1.554,-1.5499,-1.5536,-1.5591,-1.5601,-1.561,-1.5618,-1.5643,-1.5652,-1.5541,-1.5541,-1.5541,0,-1.5849,-1.5837,-1.5783,-1.5782,-1.5768,-1.5703,-1.5713,-1.5691,-1.5649,-1.564,-1.5614,-1.5582,-1.5552,-1.5557,-1.5573,-1.5562,-1.5564,-1.5542,-1.5613,-1.5621,-1.5628,-1.565,-1.566,-1.5546,-1.5545,-1.5545,-1.5544,0,-1.591,-1.5904,-1.5917,-1.5878,-1.5865,-1.587,-1.5816,-1.581,-1.5775,-1.5741,-1.574,-1.5702,-1.5677,-1.5675,-1.564,-1.5675,-1.5661,-1.5625,-1.5578,-1.5645,-1.5665,-1.5673,-1.5553,-1.5551,-1.5549,-1.5548,0,0,-1.6036,-1.5968,-1.5974,-1.5956,-1.5909,-1.5902,-1.5905,-1.5881,-1.5877,-1.585,-1.585,-1.5832,-1.5798,-1.5781,-1.5743,-1.5752,-1.5808,-1.5714,-1.5712,-1.5733,-1.5845,-1.5873,-1.5884,-1.5781,-1.5782,-1.5783,-1.5849,0,-1.6102,-1.6102,-1.6054,-1.6068,-1.6062,-1.6,-1.6002,-1.5974,-1.5943,-1.5932,-1.5897,-1.5885,-1.5842,-1.5831,-1.5837,-1.58,-1.583,-1.5795,-1.5781,-1.5781,-1.5793,-1.5894,-1.5923,-1.5987,-1.5856,-1.5857,-1.5858,0,-1.6178,-1.6157,-1.6171,-1.6124,-1.6119,-1.6122,-1.6097,-1.6088,-1.6055,-1.6031,-1.6013,-1.597,-1.5969,-1.5925,-1.5924,-1.5901,-1.5893,-1.5874,-1.5875,-1.5872,-1.5824,-1.5895,-1.6006,-1.6016,-1.587,-1.5869,-1.5868,0,-1.6269,-1.6244,-1.6249,-1.6236,-1.6181,-1.6185,-1.6162,-1.6127,-1.6116,-1.6094,-1.6086,-1.6064,-1.6052,-1.6036,-1.5989,-1.5961,-1.5993,-1.5945,-1.5974,-1.5976,-1.5984,-1.5984,-1.6096,-1.5978,-1.5978,-1.5978,-1.5978,0,-1.6348,-1.6359,-1.629,-1.6293,-1.6304,-1.6248,-1.6261,-1.6232,-1.6202,-1.6198,-1.6144,-1.6142,-1.6079,-1.607,-1.6033,-1.6038,-1.6033,-1.6014,-1.6004,-1.6019,-1.6022,-1.6013,-1.6008,-1.598,-1.598,-1.5979,-1.5979,0,-1.6451,-1.6405,-1.6407,-1.6356,-1.6344,-1.6354,-1.631,-1.6311,-1.6277,-1.6274,-1.627,-1.6216,-1.6203,-1.6154,-1.6129,-1.6104,-1.6121,-1.6102,-1.6133,-1.6126,-1.6159,-1.6157,-1.6269,-1.6281,-1.6156,-1.6157,-1.6158,0,-1.6505,-1.6512,-1.6462,-1.6457,-1.6437,-1.6428,-1.6417,-1.6363,-1.6354,-1.6318,-1.6323,-1.6306,-1.6289,-1.6272,-1.623,-1.6211,-1.6191,-1.6231,-1.6187,-1.6203,-1.6192,-1.6192,-1.6193,-1.6241,-1.6243,-1.6244,-1.6245,0,-1.6604,-1.6582,-1.6568,-1.6547,-1.6536,-1.6516,-1.6494,-1.6492,-1.6432,-1.6425,-1.6411,-1.6399,-1.6374,-1.6358,-1.6332,-1.6308,-1.6267,-1.626,-1.6265,-1.6281,-1.6299,-1.629,-1.6159,-1.6257,-1.6256,-1.6255,-1.6254,-1.6254,-1.6684,-1.6689,-1.6655,-1.6642,-1.662,-1.66,-1.6599,-1.6565,-1.6553,-1.6529,-1.6498,-1.6489,-1.6456,-1.6418,-1.6398,-1.639,-1.6367,-1.6375,-1.6377,-1.638,-1.6388,-1.6301,-1.6385,-1.6384,-1.6384,-1.6384,-1.6383,0,-1.6782,-1.6758,-1.6746,-1.6717,-1.6707,-1.667,-1.6644,-1.6638,-1.6631,-1.6604,-1.6589,-1.6574,-1.6559,-1.6517,-1.6497,-1.6499,-1.648,-1.6496,-1.6495,-1.6491,-1.6409,-1.6406,-1.6512,-1.6512,-1.6512,-1.6512,-1.6512,-1.6512,-1.6832,-1.6837,-1.6811,-1.6805,-1.678,-1.6771,-1.6759,-1.6741,-1.672,-1.6706,-1.6693,-1.6666,-1.6634,-1.6612,-1.6596,-1.6584,-1.6579,-1.6602,-1.6584,-1.6509,-1.6496,-1.6485,-1.6482,-1.6601,-1.6601,-1.6666,-1.6667,-1.6667]},{"header":{"parameterUnit":"m.s-1","parameterCategory":1,"la1":30.2991,"la2":30.254,"lo1":-89.0895,"lo2":-89.0444,"dy":0.0017,"dx":0.0017,"nx":28,"ny":28,"refTime":"2024-03-02T03:00:00:Z","depth":0,"parameterNumber":3,"parameterNumberName":"V-component_of_WINDS"},"data":[0,0,0,0,0,0,0,0,0,0,0,0,0,0,0,0,0,0,0,0,0,0,0,0,0,0,0,0,0,0,0,0,0,0,0,0,0,0,0,0,0,0,0,0,0,0,0,0,0,0,0,0,0,0,0,0,0,0,-0.5667,-0.5668,0,-0.5717,-0.5718,-0.5718,-0.5743,-0.5743,-0.5743,-0.5743,-0.5792,-0.5793,-0.5794,0,0,0,0,0,0,0,0,0,0,0,0,0,-0.559,-0.5591,-0.5667,-0.5668,-0.5669,-0.5717,-0.5718,-0.5719,-0.5743,-0.5743,-0.5743,-0.5743,-0.5791,-0.5793,-0.5795,0,0,0,0,0,0,0,0,0,0,0,0,0,-0.563,-0.5592,-0.5667,-0.5687,-0.5689,-0.5717,-0.5718,-0.5719,-0.5743,-0.5743,-0.5743,-0.5743,-0.5791,-0.5793,-0.5795,-0.5807,0,0,-0.5801,-0.5802,0,0,0,0,0,0,0,0,-0.5628,-0.5633,-0.5683,-0.5685,-0.5688,-0.5724,-0.5709,-0.5748,-0.5743,-0.5722,-0.5743,-0.5743,-0.5769,-0.5773,-0.5782,-0.5809,-0.5811,-0.5801,-0.5802,-0.5803,-0.5804,0,0,0,0,0,0,0,-0.5625,-0.5631,-0.5687,-0.5684,-0.5687,-0.5692,-0.5697,-0.5716,-0.5745,-0.5724,-0.5726,-0.5732,-0.577,-0.578,-0.5784,-0.5812,-0.5801,-0.5803,-0.5804,-0.5805,-0.585,-0.585,0,0,0,0,0,0,-0.5619,-0.5628,-0.5686,-0.5689,-0.5657,-0.5693,-0.57,-0.5712,-0.5745,-0.575,-0.5732,-0.5733,-0.5777,-0.5781,-0.5785,-0.5801,-0.5803,-0.5805,-0.5806,-0.585,-0.585,-0.585,0,0,0,0,0,0,-0.5618,-0.5624,-0.5684,-0.5659,-0.5667,-0.5695,-0.5709,-0.5713,-0.5723,-0.5751,-0.5756,-0.5737,-0.5777,-0.5783,-0.5801,-0.5803,-0.5806,-0.5808,-0.585,-0.585,-0.585,-0.5834,0,0,0,0,0,0,-0.5615,-0.5623,-0.5629,-0.5659,-0.5668,-0.57,-0.5709,-0.5714,-0.5727,-0.5729,-0.5757,-0.5761,-0.5777,-0.5798,-0.5803,-0.5806,-0.5809,-0.585,-0.585,-0.585,-0.5834,-0.5833,-0.5832,0,0,0,0,0,-0.5612,-0.5622,-0.563,-0.5636,-0.5676,-0.57,-0.5705,-0.5724,-0.5727,-0.5732,-0.575,-0.576,-0.5802,-0.58,-0.5806,-0.5809,-0.585,-0.585,-0.585,-0.5835,-0.5833,-0.5832,0,0,0,0,0,0,-0.5592,-0.5627,-0.5635,-0.5655,-0.5674,-0.5704,-0.5712,-0.5722,-0.574,-0.5741,-0.5763,-0.5769,-0.5786,-0.5799,-0.5796,-0.5822,-0.5827,-0.5828,-0.5813,-0.5812,-0.5811,-0.5808,-0.5811,0,0,0,0,0,-0.559,-0.5607,-0.5636,-0.5651,-0.566,-0.5684,-0.5695,-0.5708,-0.5728,-0.5736,-0.5755,-0.5774,-0.5791,-0.5802,-0.582,-0.5836,-0.5842,-0.5841,-0.584,-0.5839,-0.584,-0.5848,-0.5848,-0.585,-0.585,-0.585,0,0,-0.5586,-0.5607,-0.5616,-0.5647,-0.5664,-0.568,-0.5691,-0.5708,-0.572,-0.5739,-0.5758,-0.5772,-0.5794,-0.5811,-0.582,-0.5823,-0.584,-0.5839,-0.5838,-0.584,-0.5848,-0.5848,-0.5848,-0.5851,-0.5851,-0.5851,0,0,-0.5587,-0.5604,-0.5619,-0.5634,-0.5659,-0.5675,-0.5678,-0.5705,-0.5716,-0.5735,-0.5749,-0.5763,-0.5793,-0.5808,-0.5819,-0.5823,-0.5834,-0.5828,-0.5824,-0.5832,-0.5831,-0.5831,-0.5833,-0.5833,-0.5829,-0.5829,-0.5829,0,-0.5578,-0.5604,-0.5624,-0.564,-0.5653,-0.5671,-0.5685,-0.5699,-0.5727,-0.5735,-0.5738,-0.5775,-0.5791,-0.5812,-0.5813,-0.5821,-0.5825,-0.5826,-0.583,-0.583,-0.583,-0.5832,-0.5832,-0.5828,-0.5828,-0.5828,-0.5828,0,-0.5592,-0.561,-0.5618,-0.5646,-0.5659,-0.5674,-0.5695,-0.5706,-0.5717,-0.5731,-0.575,-0.577,-0.5791,-0.5797,-0.5808,-0.5818,-0.582,-0.5826,-0.5832,-0.5829,-0.5831,-0.5831,-0.5827,-0.5827,-0.5828,-0.5828,0,0,-0.5583,-0.5621,-0.5624,-0.5636,-0.5664,-0.5677,-0.5691,-0.5713,-0.5722,-0.574,-0.5752,-0.5776,-0.5782,-0.5795,-0.5807,-0.5814,-0.5815,-0.5819,-0.582,-0.5818,-0.5827,-0.5823,-0.5823,-0.5822,-0.5822,-0.5822,-0.5825,0,-0.5588,-0.5617,-0.5634,-0.5655,-0.5671,-0.5687,-0.57,-0.5717,-0.5731,-0.5745,-0.576,-0.5776,-0.5783,-0.579,-0.5798,-0.5813,-0.5817,-0.5813,-0.5833,-0.5833,-0.5827,-0.5824,-0.582,-0.5822,-0.5826,-0.5826,-0.5826,0,-0.5598,-0.5617,-0.5639,-0.5664,-0.5671,-0.5683,-0.5703,-0.5717,-0.5736,-0.5745,-0.5759,-0.5771,-0.5786,-0.5789,-0.5809,-0.5806,-0.5814,-0.5823,-0.5824,-0.5827,-0.583,-0.5827,-0.5824,-0.5824,-0.5828,-0.5828,-0.5828,0,-0.5589,-0.562,-0.5637,-0.5647,-0.5676,-0.5684,-0.5696,-0.5715,-0.5727,-0.5744,-0.5751,-0.5769,-0.5779,-0.5792,-0.5808,-0.5809,-0.5827,-0.5831,-0.5834,-0.5834,-0.5838,-0.5838,-0.5836,-0.5842,-0.5842,-0.5842,-0.5842,0,-0.5593,-0.5607,-0.5633,-0.5644,-0.5659,-0.5678,-0.5691,-0.5705,-0.5721,-0.5734,-0.5748,-0.576,-0.578,-0.5794,-0.5806,-0.5821,-0.5825,-0.5832,-0.5835,-0.5831,-0.583,-0.5838,-0.5838,-0.5843,-0.5843,-0.5843,-0.5843,0,-0.5587,-0.5605,-0.5625,-0.5651,-0.5657,-0.5667,-0.5689,-0.5699,-0.5712,-0.5728,-0.5733,-0.5754,-0.577,-0.5787,-0.581,-0.5818,-0.5832,-0.5836,-0.5825,-0.5827,-0.5829,-0.5829,-0.5832,-0.5834,-0.5839,-0.5839,-0.5839,0,-0.5589,-0.5599,-0.5626,-0.5635,-0.5648,-0.5663,-0.5674,-0.5693,-0.5704,-0.5726,-0.5733,-0.575,-0.5766,-0.579,-0.5807,-0.5824,-0.5829,-0.5829,-0.5832,-0.5827,-0.5829,-0.5828,-0.5829,-0.5828,-0.5828,-0.5828,-0.5828,0,-0.5589,-0.5598,-0.5614,-0.5633,-0.5646,-0.5662,-0.5678,-0.5685,-0.5706,-0.5717,-0.5735,-0.5746,-0.5768,-0.5785,-0.5804,-0.5815,-0.5825,-0.5827,-0.5828,-0.5825,-0.5818,-0.5822,-0.5824,-0.5827,-0.5827,-0.5827,-0.5827,-0.5827,-0.5587,-0.5597,-0.5617,-0.5634,-0.5648,-0.5663,-0.5673,-0.5688,-0.5703,-0.5723,-0.5732,-0.5749,-0.5766,-0.5792,-0.5803,-0.5816,-0.5819,-0.5821,-0.5822,-0.5822,-0.5821,-0.5815,-0.5819,-0.5819,-0.5819,-0.5819,-0.5819,0,-0.5589,-0.5602,-0.5618,-0.564,-0.5653,-0.5661,-0.5679,-0.5689,-0.5704,-0.572,-0.5734,-0.5753,-0.5769,-0.5786,-0.5803,-0.581,-0.5815,-0.5814,-0.5814,-0.5816,-0.5817,-0.5814,-0.5809,-0.5809,-0.5809,-0.5809,-0.5809,-0.5809,-0.5592,-0.5608,-0.5619,-0.5642,-0.5655,-0.5672,-0.5681,-0.5694,-0.5707,-0.5727,-0.5741,-0.5752,-0.5768,-0.5786,-0.58,-0.5805,-0.581,-0.5808,-0.5814,-0.5815,-0.5816,-0.5817,-0.5814,-0.5809,-0.5809,-0.5811,-0.5811,-0.5811]}]]